Hourly Data Report for January 31, 2006

TORONTO CITY
ONTARIO

43°40'00.000" N
79°24'00.000" W
112.50 m
6158355
71508
XTO

Download Data

Hourly Data (January 2006)
Hourly Data Report for January 31, 2006
TIME
LST
Temp Definition
°C
Dew Point Definition
°C
Rel Hum Definition
%
Precip. Amount Definition
mm

Wind Dir Definition
10's deg

Wind Spd Definition
km/h
Visibility Definition
km
Stn Press Definition
kPa
Hmdx Definition


Wind Chill Definition


Weather Definition


00:00 4.0 3.4 96   LegendMM LegendMM   99.11     LegendNANA
01:00 3.6 3.1 97   LegendMM LegendMM   99.11     LegendNANA
02:00 3.5 3.1 97   LegendMM LegendMM   99.13     LegendNANA
03:00 3.3 2.8 97   LegendMM LegendMM   99.12     LegendNANA
04:00 3.6 2.8 94   LegendMM LegendMM   99.09     LegendNANA
05:00 3.2 0.9 85   LegendMM LegendMM   99.14     LegendNANA
06:00 2.8 0.3 84   LegendMM LegendMM   99.22     LegendNANA
07:00 1.4 -1.4 82   LegendMM LegendMM   99.32     LegendNANA
08:00 0.9 -2.8 76   LegendMM LegendMM   99.37     LegendNANA
09:00 1.4 -2.6 75   LegendMM LegendMM   99.45     LegendNANA
10:00 1.6 -2.8 73   LegendMM LegendMM   99.50     LegendNANA
11:00 1.7 -2.3 75   LegendMM LegendMM   99.55     LegendNANA
12:00 1.9 -2.3 74   LegendMM LegendMM   99.54     LegendNANA
13:00 2.3 -2.7 69   LegendMM LegendMM   99.52     LegendNANA
14:00 2.2 -2.5 71   LegendMM LegendMM   99.52     LegendNANA
15:00 1.9 -2.2 74   LegendMM LegendMM   99.57     LegendNANA
16:00 1.8 -2.1 75   LegendMM LegendMM   99.62     LegendNANA
17:00 1.7 -3.3 69   LegendMM LegendMM   99.69     LegendNANA
18:00 0.8 -3.6 72   LegendMM LegendMM   99.79     LegendNANA
19:00 0.7 -4.1 70   LegendMM LegendMM   99.86     LegendNANA
20:00 0.9 -4.0 70   LegendMM LegendMM   99.86     LegendNANA
21:00 0.9 -3.5 72   LegendMM LegendMM   99.87     LegendNANA
22:00 0.6 -2.4 80   LegendMM LegendMM   99.91     LegendNANA
23:00 0.5 -2.0 83   LegendMM LegendMM   99.95     LegendNANA

Notes on Data Quality.

Legend

  • E = Estimated
  • M = Missing
  • NA = Not Available*
  • [empty] = Indicates an unobserved value
Date modified: